| time (UTC) | temp F | wind direction | speed MPH | gust MPH | rain 1hr in | rain 24hr in | rain mn in | humidity % | barometer mb |
| 20260903063023 | 80 | 142 | 9.0 | 17.0 | 0.00 | 0.00 | 0.00 | 72 | 1016.1 |
| 20260903061508 | 80 | 151 | 5.0 | 11.0 | 0.00 | 0.00 | 0.00 | 74 | 1016.0 |
| 20260903060018 | 79 | 148 | 6.0 | 9.0 | 0.00 | 0.00 | 0.00 | 75 | 1015.9 |
| 20260903054509 | 80 | 121 | 4.0 | 8.0 | 0.00 | 0.00 | 0.00 | 74 | 1015.9 |
| 20260903053016 | 80 | 153 | 5.0 | 10.0 | 0.00 | 0.00 | 0.00 | 74 | 1015.9 |
| 20260903051525 | 80 | 151 | 5.0 | 11.0 | 0.00 | 0.00 | 0.00 | 74 | 1015.9 |
| 20260903050034 | 79 | 150 | 3.0 | 9.0 | 0.00 | 0.00 | 0.00 | 75 | 1015.9 |
| 20260903044519 | 80 | 172 | 6.0 | 10.0 | 0.00 | 0.00 | 0.00 | 74 | 1015.8 |
| 20260903043018 | 80 | 152 | 4.0 | 13.0 | 0.00 | 0.00 | 0.00 | 74 | 1016.0 |
| 20260903041512 | 80 | 154 | 4.0 | 8.0 | 0.00 | 0.00 | 0.00 | 73 | 1016.1 |
| 20260903040024 | 80 | 141 | 6.0 | 10.0 | 0.00 | 0.00 | 0.00 | 72 | 1016.1 |
| 20260903034529 | 80 | 126 | 6.0 | 12.0 | 0.00 | 0.00 | 0.00 | 71 | 1016.2 |
| 20260903033018 | 81 | 135 | 8.0 | 14.0 | 0.00 | 0.00 | 0.00 | 70 | 1016.3 |
| 20260903031511 | 81 | 141 | 9.0 | 13.0 | 0.00 | 0.00 | 0.00 | 69 | 1016.2 |
| 20260903030027 | 81 | 106 | 4.0 | 9.0 | 0.00 | 0.00 | 0.00 | 69 | 1016.1 |
| 20260903024521 | 82 | 139 | 4.0 | 12.0 | 0.00 | 0.00 | 0.00 | 69 | 1015.8 |
| 20260903023031 | 82 | 134 | 8.0 | 14.0 | 0.00 | 0.00 | 0.00 | 68 | 1015.8 |
| 20260903021512 | 82 | 117 | 6.0 | 11.0 | 0.00 | 0.00 | 0.00 | 68 | 1015.7 |
| 20260903020033 | 82 | 135 | 6.0 | 12.0 | 0.00 | 0.00 | 0.00 | 67 | 1015.6 |
| 20260903014523 | 83 | 153 | 6.0 | 13.0 | 0.00 | 0.00 | 0.00 | 66 | 1015.4 |
| 20260903013018 | 84 | 112 | 7.0 | 13.0 | 0.00 | 0.00 | 0.00 | 64 | 1015.2 |
| 20260903011538 | 85 | 155 | 5.0 | 13.0 | 0.00 | 0.00 | 0.00 | 62 | 1015.0 |
| 20260903010032 | 86 | 134 | 6.0 | 12.0 | 0.00 | 0.00 | 0.00 | 58 | 1014.9 |
| 20260903004529 | 87 | 150 | 6.0 | 15.0 | 0.00 | 0.00 | 0.00 | 57 | 1014.6 |
| 20260903003027 | 88 | 133 | 7.0 | 17.0 | 0.00 | 0.00 | 0.00 | 56 | 1014.6 |
| 20260903001517 | 88 | 120 | 7.0 | 18.0 | 0.00 | 0.00 | 0.00 | 55 | 1014.6 |
| 20260903000040 | 89 | 72 | 9.0 | 20.0 | 0.00 | 0.00 | 0.00 | 53 | 1014.6 |
| 20260902234528 | 90 | 122 | 13.0 | 22.0 | 0.00 | 0.00 | 0.00 | 50 | 1014.6 |
| 20260902233023 | 92 | 115 | 12.0 | 22.0 | 0.00 | 0.00 | 0.00 | 48 | 1014.4 |
| 20260902231528 | 93 | 112 | 10.0 | 17.0 | 0.00 | 0.00 | 0.00 | 46 | 1014.2 |
| 20260902230030 | 94 | 107 | 8.0 | 18.0 | 0.00 | 0.00 | 0.00 | 46 | 1014.1 |
| 20260902224528 | 94 | 123 | 12.0 | 22.0 | 0.00 | 0.00 | 0.00 | 44 | 1014.1 |
| 20260902223033 | 94 | 86 | 14.0 | 25.0 | 0.00 | 0.00 | 0.00 | 45 | 1014.1 |
| 20260902221523 | 95 | 110 | 17.0 | 23.0 | 0.00 | 0.00 | 0.00 | 45 | 1014.1 |
| 20260902220041 | 95 | 125 | 13.0 | 25.0 | 0.00 | 0.00 | 0.00 | 46 | 1014.2 |
| 20260902214551 | 95 | 102 | 16.0 | 23.0 | 0.00 | 0.00 | 0.00 | 45 | 1014.1 |
| 20260902213026 | 96 | 86 | 10.0 | 23.0 | 0.00 | 0.00 | 0.00 | 44 | 1014.1 |
| 20260902211530 | 96 | 104 | 16.0 | 25.0 | 0.00 | 0.00 | 0.00 | 42 | 1014.4 |
| 20260902210018 | 96 | 116 | 13.0 | 21.0 | 0.00 | 0.00 | 0.00 | 45 | 1014.6 |
| 20260902204527 | 96 | 86 | 12.0 | 20.0 | 0.00 | 0.00 | 0.00 | 45 | 1014.7 |
| 20260902203032 | 95 | 72 | 9.0 | 18.0 | 0.00 | 0.00 | 0.00 | 45 | 1014.8 |
| 20260902201535 | 97 | 54 | 10.0 | 16.0 | 0.00 | 0.00 | 0.00 | 43 | 1014.9 |
| 20260902200033 | 95 | 117 | 11.0 | 22.0 | 0.00 | 0.00 | 0.00 | 44 | 1015.1 |
| 20260902194525 | 97 | 89 | 15.0 | 20.0 | 0.00 | 0.00 | 0.00 | 43 | 1015.1 |
| 20260902193028 | 98 | 52 | 13.0 | 22.0 | 0.00 | 0.00 | 0.00 | 42 | 1015.2 |
| 20260902191533 | 96 | 64 | 10.0 | 19.0 | 0.00 | 0.00 | 0.00 | 45 | 1015.6 |
| 20260902190024 | 95 | 105 | 11.0 | 19.0 | 0.00 | 0.00 | 0.00 | 46 | 1015.8 |
| 20260902184535 | 93 | 92 | 10.0 | 19.0 | 0.00 | 0.00 | 0.00 | 47 | 1016.0 |
| 20260902183030 | 97 | 134 | 9.0 | 19.0 | 0.00 | 0.00 | 0.00 | 46 | 1016.3 |
| 20260902181529 | 96 | 83 | 9.0 | 16.0 | 0.00 | 0.00 | 0.00 | 48 | 1016.5 |
| 20260902180036 | 94 | 107 | 6.0 | 20.0 | 0.00 | 0.00 | 0.00 | 49 | 1016.9 |
| 20260902174525 | 93 | 106 | 11.0 | 17.0 | 0.00 | 0.00 | 0.00 | 50 | 1017.3 |
| 20260902173037 | 94 | 103 | 10.0 | 14.0 | 0.00 | 0.00 | 0.00 | 50 | 1017.5 |
| 20260902171513 | 93 | 84 | 10.0 | 14.0 | 0.00 | 0.00 | 0.00 | 53 | 1017.7 |
| 20260902170008 | 90 | 96 | 9.0 | 17.0 | 0.00 | 0.00 | 0.00 | 56 | 1018.0 |
| 20260902164509 | 92 | 102 | 7.0 | 17.0 | 0.00 | 0.00 | 0.00 | 54 | 1018.2 |
| 20260902163020 | 90 | 99 | 11.0 | 18.0 | 0.00 | 0.00 | 0.00 | 55 | 1018.2 |
| 20260902161526 | 91 | 86 | 7.0 | 14.0 | 0.00 | 0.00 | 0.00 | 57 | 1018.2 |
| 20260902160012 | 90 | 51 | 9.0 | 13.0 | 0.00 | 0.00 | 0.00 | 59 | 1018.3 |
| 20260902154513 | 89 | 130 | 8.0 | 9.0 | 0.00 | 0.00 | 0.00 | 61 | 1018.4 |
| 20260902153039 | 87 | 112 | 10.0 | 14.0 | 0.00 | 0.00 | 0.00 | 62 | 1018.3 |
| 20260902151520 | 87 | 128 | 4.0 | 11.0 | 0.00 | 0.00 | 0.00 | 64 | 1018.3 |
| 20260902150027 | 86 | 102 | 6.0 | 11.0 | 0.00 | 0.00 | 0.00 | 67 | 1018.2 |
| 20260902144513 | 84 | 81 | 7.0 | 9.0 | 0.00 | 0.00 | 0.00 | 69 | 1018.2 |
| 20260902143015 | 84 | 66 | 5.0 | 10.0 | 0.00 | 0.00 | 0.00 | 72 | 1018.2 |
| 20260902141521 | 83 | 65 | 6.0 | 9.0 | 0.00 | 0.00 | 0.00 | 73 | 1018.3 |
| 20260902140019 | 82 | 38 | 6.0 | 9.0 | 0.00 | 0.00 | 0.00 | 74 | 1018.3 |
| 20260902134528 | 81 | 77 | 5.0 | 9.0 | 0.00 | 0.00 | 0.00 | 76 | 1018.3 |
| 20260902133040 | 80 | 79 | 5.0 | 10.0 | 0.00 | 0.00 | 0.00 | 77 | 1018.3 |
| 20260902131517 | 79 | 91 | 5.0 | 8.0 | 0.00 | 0.00 | 0.00 | 78 | 1018.3 |
| 20260902130023 | 79 | 50 | 5.0 | 8.0 | 0.00 | 0.00 | 0.00 | 78 | 1018.2 |
| 20260902124522 | 78 | 79 | 5.0 | 7.0 | 0.00 | 0.00 | 0.00 | 80 | 1018.2 |
| 20260902123027 | 76 | 95 | 5.0 | 7.0 | 0.00 | 0.00 | 0.00 | 81 | 1018.1 |
| 20260902121534 | 75 | 70 | 4.0 | 5.0 | 0.00 | 0.00 | 0.00 | 82 | 1017.8 |
| 20260902120032 | 76 | 89 | 2.0 | 5.0 | 0.00 | 0.00 | 0.00 | 81 | 1017.7 |
| 20260902114506 | 76 | 97 | 4.0 | 6.0 | 0.00 | 0.00 | 0.00 | 81 | 1017.6 |
| 20260902113016 | 76 | 86 | 4.0 | 6.0 | 0.00 | 0.00 | 0.00 | 80 | 1017.6 |
| 20260902111504 | 76 | 92 | 4.0 | 7.0 | 0.00 | 0.00 | 0.00 | 80 | 1017.6 |
| 20260902110011 | 76 | 96 | 6.0 | 8.0 | 0.00 | 0.00 | 0.00 | 79 | 1017.6 |
| 20260902104524 | 77 | 94 | 5.0 | 7.0 | 0.00 | 0.00 | 0.00 | 78 | 1017.6 |
| 20260902103005 | 77 | 103 | 5.0 | 7.0 | 0.00 | 0.00 | 0.00 | 78 | 1017.6 |
| 20260902101509 | 77 | 107 | 4.0 | 5.0 | 0.00 | 0.00 | 0.00 | 77 | 1017.4 |
| 20260902100015 | 77 | 94 | 4.0 | 5.0 | 0.00 | 0.00 | 0.00 | 77 | 1017.3 |
| 20260902094508 | 77 | 95 | 3.0 | 5.0 | 0.00 | 0.00 | 0.00 | 76 | 1017.5 |
| 20260902093020 | 78 | 97 | 3.0 | 6.0 | 0.00 | 0.00 | 0.00 | 75 | 1017.3 |
| 20260902091501 | 78 | 93 | 4.0 | 5.0 | 0.00 | 0.00 | 0.00 | 73 | 1017.2 |
| 20260902090015 | 78 | 105 | 2.0 | 4.0 | 0.00 | 0.00 | 0.00 | 73 | 1017.3 |
| 20260902084516 | 78 | 113 | 3.0 | 5.0 | 0.00 | 0.00 | 0.00 | 73 | 1017.3 |
| 20260902083008 | 79 | 116 | 4.0 | 5.0 | 0.00 | 0.00 | 0.00 | 72 | 1017.3 |
| 20260902081502 | 79 | 112 | 3.0 | 4.0 | 0.00 | 0.00 | 0.00 | 71 | 1017.1 |
| 20260902080030 | 79 | 109 | 4.0 | 8.0 | 0.00 | 0.00 | 0.00 | 71 | 1017.2 |
| 20260902074515 | 79 | 125 | 2.0 | 3.0 | 0.00 | 0.00 | 0.00 | 71 | 1017.4 |
| 20260902073017 | 80 | 127 | 1.0 | 3.0 | 0.00 | 0.00 | 0.00 | 69 | 1017.5 |
| 20260902071507 | 81 | 127 | 1.0 | 2.0 | 0.00 | 0.00 | 0.00 | 68 | 1017.4 |
| 20260902070023 | 81 | 127 | 2.0 | 3.0 | 0.00 | 0.00 | 0.00 | 68 | 1017.5 |
| 20260902064518 | 81 | 127 | 1.0 | 4.0 | 0.00 | 0.00 | 0.00 | 67 | 1017.5 |